Location: Fours
(44.3167°N, 6.7000°E)
Time: 00:16:52
(UTC+00:00)

Cosmos 1300 - Pass Details

Date: 16 October 2021
Orbit: 509 x 512 km, 82.5° (Epoch: 01 December)

Event Time Altitude Azimuth Distance (km) Brightness Sun altitude
Rises 18:28:43 0° 179° (S) 2,612 6.2 -18.9°
Reaches altitude 10° 18:30:50 10° 175° (S) 1,731 5.2 -19.3°
Enters shadow 18:33:29 41° 155° (SSE) 759 3.2 -19.7°
Exits shadow 18:37:46 14° 17° (NNE) 1,505 4.9 -20.5°
Drops below altitude 10° 18:38:21 10° 15° (NNE) 1,746 5.3 -20.6°
Sets 18:40:31 0° 12° (NNE) 2,637 6.3 -21.0°
